Погода в Куваке-Никольском

Россия / Пензенская область     53°37′05″N   43°30′27″E
темп.,
°C
ветер,
м/с
пор.,
м/с
влажн.,
%
обл.,
%
осадки,
мм/ч
давл.,
гПа
погр.,
м
23 июня, ср
ср2300:00+21в22870 0.0 102116
03:00+20в22860 0.0 102111
06:00+22св11790 0.0 102165
09:00+26св23680 0.0 1021400
12:00+29всв21560 0.0 10211151
15:00+30ссз11470 0.0 10202036
18:00+29с23650 0.0 1019183
21:00+23в01650 0.0 102011
24 июня, чт
чт2400:00+22сз116819 0.0 102011
03:00+22с22692 0.0 102016
06:00+23ссв24820 0.0 1020107
09:00+27в23670 0.0 1020554
12:00+29всв22560 0.0 10201155
15:00+30св34520 0.0 10191871
18:00+30св12620 0.0 10181357
21:00+23ссз347498 0.6 101952
25 июня, пт
пт2500:00+21юв008090 0.6 101811
03:00+19ссз22815 1.0 101914
06:00+22с22780 0.3 101884
09:00+26всв23694 0.4 1018362
12:00+30всв115879 0.0 10181120
15:00+30ссв115246 0.0 10171621
18:00+30з01630 0.0 10151446
21:00+24в22720 0.0 101611
26 июня, сб
сб2600:00+20ю359185 0.9 101672
03:00+20вюв118813 1.2 101611
06:00+23юз118111 0.0 101663
09:00+27юз11665 0.0 1015452
12:00+30ююв015499 1.3 10151497
15:00+30сз1252100 1.3 10141483
18:00+29ю12644 0.0 1013523
21:00+23ссв127714 0.3 101426
27 июня, вс
вс2700:00+21в238823 0.1 101435
03:00+20юв229121 0.1 101421
06:00+23ююв117926 0.0 101564
09:00+28юз22632 0.0 1015472
12:00+30зюз23540 0.3 10151369
15:00+31з22510 0.3 10141853
18:00+30юз01624 0.0 10141484
21:00+25вюв12670 0.0 101311